Date String (YYYY-MM-DD hh:mm:ss) UTC,Instrument flags,absolute air pressure of the measurement (hPa),sample flow rate (lpm),inlet stack bypass flow (lpm),air temperature of the measurement (°C),ambient temperature measured by the external sensor (°C),aerosol sample conditioner tube jacket temperature (°C),OPC LED temperature (°C),internal box temperature (°C),relative humidity of the measurement (%),span deviation,mass concentration of particles derived from Lorenz-Mie calculation of OPC scattering (μg/m³),mass concentration of particles derived from Lorenz-Mie calculation of OPC scattering (μg/m³),mass concentration of particles derived from Lorenz-Mie calculation of OPC scattering (μg/m³)
DateTimeUTC,F1_M11,P_M11,Q1_M11,Q2_M11,T1_M11,T2_M11,T3_M11,T4_M11,T5_M11,U1_M11,ZSPAN_M11,X2_M11,X0_M11,X1_M11
2024-06-01 07:00:00,SystemResetWarning,0829.4,5.00,000.00,031.0,030.2,000.0,039.5,032.7,026.6,-000.2,0008.24,0022.39,0006.98
2024-06-01 07:01:00,SystemResetWarning,0829.5,5.00,000.00,031.0,030.2,000.0,039.5,032.7,026.6,0000.3,0008.22,0021.49,0006.95
2024-06-01 07:02:00,SystemResetWarning,0829.5,5.00,000.00,031.0,030.2,000.0,039.5,032.7,026.7,0000.8,0008.16,0019.65,0006.93
2024-06-01 07:03:00,SystemResetWarning,0829.6,5.00,000.00,031.0,030.2,000.0,039.5,032.7,026.7,0001.7,0008.06,0019.03,0006.90
2024-06-01 07:04:00,SystemResetWarning,0829.6,5.00,000.00,031.0,030.2,000.0,039.5,032.7,026.7,0001.6,0008.02,0019.32,0006.87
2024-06-01 07:05:00,SystemResetWarning,0829.5,5.00,000.00,031.0,030.2,000.0,039.5,032.7,026.8,0001.8,0008.00,0019.08,0006.85
2024-06-01 07:06:00,SystemResetWarning,0829.5,5.00,000.00,031.0,030.2,000.0,039.5,032.7,026.8,0001.7,0007.99,0018.70,0006.83
2024-06-01 07:07:00,SystemResetWarning,0829.4,5.00,000.00,031.0,030.2,000.0,039.5,032.7,026.7,0001.6,0007.95,0018.05,0006.80
2024-06-01 07:08:00,SystemResetWarning,0829.5,4.99,000.00,031.0,030.2,000.0,039.5,032.7,026.8,0001.5,0007.96,0018.01,0006.78
2024-06-01 07:09:00,SystemResetWarning,0829.4,5.00,000.00,031.0,030.2,000.0,039.5,032.7,026.8,0001.6,0007.91,0016.70,0006.74
2024-06-01 07:10:00,SystemResetWarning,0829.3,5.00,000.00,031.0,030.2,000.0,039.5,032.7,026.8,0001.8,0007.88,0015.86,0006.70
2024-06-01 07:11:00,SystemResetWarning,0829.3,5.00,000.00,031.0,030.2,000.0,039.4,032.7,026.7,0001.6,0007.82,0015.62,0006.68
2024-06-01 07:12:00,SystemResetWarning,0829.3,5.00,000.00,031.0,030.2,000.0,039.4,032.6,026.7,0001.4,0007.78,0015.69,0006.67
2024-06-01 07:13:00,SystemResetWarning,0829.3,5.00,000.00,031.0,030.2,000.0,039.4,032.6,026.5,0001.3,0007.80,0015.98,0006.67
2024-06-01 07:14:00,SystemResetWarning,0829.4,5.01,000.00,031.0,030.2,000.0,039.4,032.6,026.3,0001.3,0007.77,0015.70,0006.65
2024-06-01 07:15:00,SystemResetWarning,0829.3,5.01,000.00,031.0,030.2,000.0,039.4,032.6,026.1,0001.4,0007.75,0015.36,0006.64
2024-06-01 07:16:00,SystemResetWarning,0829.3,5.01,000.00,031.0,030.1,000.0,039.4,032.6,025.7,0001.7,0007.78,0015.54,0006.63
2024-06-01 07:17:00,SystemResetWarning,0829.3,4.99,000.00,031.0,030.1,000.0,039.4,032.6,025.5,0001.6,0007.73,0016.86,0006.61
2024-06-01 07:18:00,SystemResetWarning,0829.3,4.99,000.00,030.9,030.1,000.0,039.4,032.6,025.4,0001.6,0007.72,0016.93,0006.61
2024-06-01 07:19:00,SystemResetWarning,0829.3,5.00,000.00,030.9,030.1,000.0,039.4,032.6,025.4,0002.0,0007.65,0017.01,0006.59
2024-06-01 07:20:00,SystemResetWarning,0829.3,5.01,000.00,030.9,030.1,000.0,039.4,032.6,025.5,0002.2,0007.65,0017.44,0006.61
2024-06-01 07:21:00,SystemResetWarning,0829.3,5.01,000.00,030.9,030.1,000.0,039.4,032.6,025.5,0002.0,0007.63,0017.64,0006.61
2024-06-01 07:22:00,SystemResetWarning,0829.3,5.01,000.00,030.9,030.1,000.0,039.4,032.6,025.6,0001.9,0007.61,0017.44,0006.61
2024-06-01 07:23:00,SystemResetWarning,0829.3,5.00,000.00,030.9,030.1,000.0,039.4,032.6,025.4,0002.4,0007.60,0016.83,0006.61
2024-06-01 07:24:00,SystemResetWarning,0829.4,4.99,000.00,030.9,030.1,000.0,039.4,032.6,025.4,0002.5,0007.57,0016.04,0006.60
2024-06-01 07:25:00,SystemResetWarning,0829.4,5.00,000.00,030.9,030.1,000.0,039.4,032.6,025.5,0002.3,0007.61,0016.19,0006.61
2024-06-01 07:26:00,SystemResetWarning,0829.3,5.00,000.00,030.9,030.1,000.0,039.4,032.6,025.5,0002.0,0007.63,0016.16,0006.61
2024-06-01 07:27:00,SystemResetWarning,0829.4,5.01,000.00,030.9,030.1,000.0,039.4,032.6,025.5,0001.7,0007.61,0016.17,0006.61
2024-06-01 07:28:00,SystemResetWarning,0829.4,5.00,000.00,030.9,030.1,000.0,039.4,032.6,025.7,0001.7,0007.59,0015.41,0006.60
2024-06-01 07:29:00,SystemResetWarning,0829.4,5.00,000.00,030.9,030.1,000.0,039.4,032.6,025.8,0002.1,0007.54,0015.34,0006.60
2024-06-01 07:30:00,SystemResetWarning,0829.3,5.00,000.00,030.9,030.1,000.0,039.3,032.6,025.8,0001.9,0007.58,0015.35,0006.60
2024-06-01 07:31:00,SystemResetWarning,0829.3,5.00,000.00,030.9,030.1,000.0,039.3,032.5,025.7,0001.8,0007.55,0015.09,0006.60
2024-06-01 07:32:00,SystemResetWarning,0829.4,5.00,000.00,030.9,030.1,000.0,039.3,032.6,025.5,0002.2,0007.56,0015.38,0006.59
2024-06-01 07:33:00,SystemResetWarning,0829.4,5.00,000.00,030.9,030.1,000.0,039.3,032.6,025.6,0002.1,0007.55,0014.93,0006.58
2024-06-01 07:34:00,SystemResetWarning,0829.4,5.01,000.00,030.9,030.1,000.0,039.3,032.6,026.0,0001.5,0007.54,0015.23,0006.58
2024-06-01 07:35:00,SystemResetWarning,0829.4,5.00,000.00,030.9,030.0,000.0,039.3,032.6,026.0,0001.3,0007.51,0015.12,0006.56
2024-06-01 07:36:00,SystemResetWarning,0829.4,5.00,000.00,030.9,030.0,000.0,039.3,032.5,026.0,0001.4,0007.46,0015.13,0006.54
2024-06-01 07:37:00,SystemResetWarning,0829.4,5.00,000.00,030.9,030.0,000.0,039.3,032.5,026.0,0001.3,0007.45,0015.83,0006.52
2024-06-01 07:38:00,SystemResetWarning,0829.3,5.00,000.00,030.8,030.0,000.0,039.3,032.5,025.9,0001.3,0007.42,0015.62,0006.51
2024-06-01 07:39:00,SystemResetWarning,0829.3,4.98,000.00,030.8,030.0,000.0,039.3,032.5,025.9,0001.0,0007.40,0015.43,0006.50
2024-06-01 07:40:00,SystemResetWarning,0829.4,4.99,000.00,030.8,030.0,000.0,039.3,032.5,026.0,0000.6,0007.43,0015.30,0006.50
2024-06-01 07:41:00,SystemResetWarning,0829.4,4.99,000.00,030.8,030.0,000.0,039.3,032.5,026.2,0000.4,0007.47,0015.57,0006.50
2024-06-01 07:42:00,SystemResetWarning,0829.3,5.00,000.00,030.8,030.0,000.0,039.3,032.5,026.1,0000.5,0007.46,0015.57,0006.49
2024-06-01 07:43:00,SystemResetWarning,0829.3,5.00,000.00,030.8,030.0,000.0,039.3,032.5,026.0,0000.4,0007.46,0015.71,0006.49
2024-06-01 07:44:00,SystemResetWarning,0829.3,5.01,000.00,030.8,030.0,000.0,039.3,032.5,026.1,0000.3,0007.48,0015.83,0006.49
2024-06-01 07:45:00,SystemResetWarning,0829.3,5.01,000.00,030.8,030.0,000.0,039.3,032.5,026.2,0000.7,0007.48,0016.43,0006.47
2024-06-01 07:46:00,SystemResetWarning,0829.3,5.00,000.00,030.8,030.0,000.0,039.3,032.5,026.3,0000.4,0007.51,0017.16,0006.48
2024-06-01 07:47:00,SystemResetWarning,0829.3,4.99,000.00,030.8,030.0,000.0,039.3,032.5,026.2,0000.4,0007.50,0017.32,0006.48
2024-06-01 07:48:00,SystemResetWarning,0829.3,4.99,000.00,030.8,030.0,000.0,039.3,032.5,026.2,0000.3,0007.48,0016.77,0006.47
2024-06-01 07:49:00,SystemResetWarning,0829.2,5.00,000.00,030.8,030.0,000.0,039.3,032.5,026.1,0000.5,0007.49,0017.14,0006.47
2024-06-01 07:50:00,SystemResetWarning,0829.2,5.01,000.00,030.8,030.0,000.0,039.3,032.5,026.0,0001.0,0007.50,0017.73,0006.47
2024-06-01 07:51:00,SystemResetWarning,0829.2,5.00,000.00,030.8,030.0,000.0,039.2,032.5,025.9,0001.0,0007.53,0018.25,0006.48
2024-06-01 07:52:00,SystemResetWarning,0829.2,5.00,000.00,030.8,030.0,000.0,039.2,032.5,026.0,0001.1,0007.51,0018.51,0006.49
2024-06-01 07:53:00,SystemResetWarning,0829.3,4.99,000.00,030.8,030.0,000.0,039.2,032.5,026.1,0001.1,0007.50,0019.22,0006.50
2024-06-01 07:54:00,SystemResetWarning,0829.3,5.00,000.00,030.8,030.0,000.0,039.2,032.5,026.1,0001.1,0007.50,0019.20,0006.50
2024-06-01 07:55:00,SystemResetWarning,0829.3,4.99,000.00,030.8,029.9,000.0,039.2,032.4,025.9,0000.9,0007.52,0019.89,0006.50
2024-06-01 07:56:00,SystemResetWarning,0829.2,5.00,000.00,030.7,029.9,000.0,039.2,032.4,025.7,0000.8,0007.53,0019.26,0006.49
2024-06-01 07:57:00,SystemResetWarning,0829.2,5.00,000.00,030.7,029.9,000.0,039.2,032.5,025.8,0000.6,0007.53,0018.53,0006.48
2024-06-01 07:58:00,SystemResetWarning,0829.3,5.00,000.00,030.7,029.9,000.0,039.2,032.4,026.0,0000.5,0007.56,0018.80,0006.47
2024-06-01 07:59:00,SystemResetWarning,0829.3,5.00,000.00,030.7,029.9,000.0,039.2,032.4,026.0,0000.6,0007.57,0019.21,0006.47
